Simultaneous Nadir Overpasses (SNOs) Predictions

Prediction of SNOs between LANDSAT-8 and METOP-B Satellite Orbit:

Table of predicted SNOs for the next 14.0 days since TLE Epoch: 2/11/2023
Index Date (LANDSAT-8) Time (LANDSAT-8) Lat,Lon (LANDSAT-8) SZA (LANDSAT-8 ) Date (METOP-B) Time (METOP-B) Lat,Lon (METOP-B) SZA (METOP-B ) Distance(km) Time Diff (sec)
1 02/12/2023 07:19:22 81.12, 109.78 96.48 02/12/2023 07:19:17 81.12, 109.71 96.48 1.22 5
2 02/12/2023 08:08:48 -81.14, -82.29 83.49 02/12/2023 08:09:56 -81.15, -82.18 83.45 2.07 68
3 02/15/2023 02:04:07 -81.11, 8.39 84.48 02/15/2023 02:03:00 -81.11, 8.51 84.49 1.97 67
4 02/15/2023 02:53:32 81.14, 176.45 95.57 02/15/2023 02:53:39 81.13, 176.39 95.57 1.08 7
5 02/17/2023 21:38:17 -81.12, 75.07 85.42 02/17/2023 21:37:23 -81.12, 75.07 85.44 0.58 54
6 02/17/2023 22:27:43 81.13,-117.26 94.58 02/17/2023 22:28:03 81.12,-117.45 94.57 3.23 20
7 02/20/2023 17:12:27 -81.11, 141.38 86.43 02/20/2023 17:11:46 -81.12, 141.50 86.43 2.13 41
8 02/20/2023 18:01:52 81.14, -50.61 93.61 02/20/2023 18:02:25 81.14, -50.67 93.62 1.03 33
9 02/23/2023 12:46:34 -81.13,-151.95 87.41 02/23/2023 12:46:07 -81.13,-151.83 87.41 2.07 27



Historial Predications of SNOs between LANDSAT-8 and METOP-B
